• In Russia
  • List of Countries
  • For 7 days
  • Water Temperature
  • Satellite Maps
  • Weather Map
  • Weather Widgets
  • user-avatar
    Login

    Hourly Weather Przazewo

    Today, 20 February, Wednesday

    Time Temperature Precipitation Wind Pressure Humidity
    00:00 +2°C° 0 mm 5 mps 747 mmHg 90%
    01:00 +1°C° 0 mm 4 mps 747 mmHg 91%
    02:00 +1°C° 0 mm 5 mps 747 mmHg 91%
    03:00 +1°C° 0 mm 5 mps 747 mmHg 91%
    04:00 +1°C° 0 mm 6 mps 747 mmHg 91%
    05:00 +1°C° 0 mm 6 mps 747 mmHg 90%
    06:00 +1°C° 0 mm 6 mps 748 mmHg 90%
    07:00 +1°C° 0 mm 5 mps 748 mmHg 89%
    08:00 +2°C° 0.1 mm 6 mps 748 mmHg 83%
    09:00 +2°C° 0.1 mm 7 mps 749 mmHg 77%
    10:00 +2°C° 0.1 mm 8 mps 749 mmHg 71%
    11:00 +2°C° 0.1 mm 8 mps 749 mmHg 70%
    12:00 +2°C° 0.1 mm 8 mps 750 mmHg 69%
    13:00 +2°C° 0.1 mm 8 mps 750 mmHg 68%
    14:00 +2°C° 0 mm 8 mps 750 mmHg 68%
    15:00 +3°C° 0 mm 7 mps 750 mmHg 67%
    16:00 +3°C° 0 mm 7 mps 751 mmHg 67%
    17:00 +3°C° 0 mm 6 mps 751 mmHg 70%
    18:00 +3°C° 0 mm 6 mps 752 mmHg 73%
    19:00 +2°C° 0 mm 5 mps 752 mmHg 76%
    20:00 +2°C° 0 mm 5 mps 752 mmHg 78%
    21:00 +1°C° 0 mm 4 mps 753 mmHg 81%
    22:00 +1°C° 0 mm 4 mps 754 mmHg 84%
    23:00 +1°C° 0 mm 3 mps 754 mmHg 86%

    Tomorrow, 21 February, Thursday

    Time Temperature Precipitation Wind Pressure Humidity
    00:00 0°C° 0 mm 3 mps 754 mmHg 89%
    01:00 +1°C° 0 mm 2 mps 754 mmHg 92%
    02:00 +1°C° 0 mm 2 mps 754 mmHg 92%
    03:00 +1°C° 0 mm 2 mps 754 mmHg 93%
    04:00 +1°C° 0 mm 2 mps 754 mmHg 94%
    05:00 +1°C° 0.1 mm 2 mps 754 mmHg 95%
    06:00 +1°C° 0.1 mm 2 mps 754 mmHg 96%
    07:00 +2°C° 0.1 mm 2 mps 754 mmHg 97%
    08:00 +2°C° 0.3 mm 2 mps 754 mmHg 96%
    09:00 +3°C° 0.3 mm 2 mps 754 mmHg 96%
    10:00 +2°C° 0.3 mm 3 mps 754 mmHg 96%
    11:00 +2°C° 0.8 mm 3 mps 754 mmHg 95%
    12:00 +3°C° 0.8 mm 4 mps 753 mmHg 94%
    13:00 +3°C° 0.8 mm 4 mps 753 mmHg 93%
    14:00 +3°C° 0.9 mm 4 mps 752 mmHg 93%
    15:00 +2°C° 0.9 mm 5 mps 752 mmHg 93%
    16:00 +2°C° 0.9 mm 5 mps 751 mmHg 93%
    17:00 +2°C° 0.9 mm 5 mps 751 mmHg 93%
    18:00 +2°C° 0.9 mm 5 mps 751 mmHg 93%
    19:00 +2°C° 0.9 mm 5 mps 750 mmHg 93%
    20:00 +2°C° 0.7 mm 5 mps 750 mmHg 94%
    21:00 +3°C° 0.7 mm 4 mps 750 mmHg 95%
    22:00 +3°C° 0.7 mm 4 mps 750 mmHg 95%
    23:00 +2°C° 0.5 mm 5 mps 750 mmHg 94%

    Day after tomorrow, 22 February, Friday

    Time Temperature Precipitation Wind Pressure Humidity
    00:00 +1°C° 0.5 mm 6 mps 751 mmHg 93%
    01:00 -1°C° 0.5 mm 7 mps 751 mmHg 92%
    02:00 -2°C° 0.1 mm 7 mps 752 mmHg 89%
    03:00 -3°C° 0.1 mm 7 mps 753 mmHg 85%
    04:00 -6°C° 0.1 mm 8 mps 754 mmHg 82%
    05:00 -6°C° 0 mm 8 mps 756 mmHg 78%
    06:00 -7°C° 0 mm 7 mps 757 mmHg 73%
    07:00 -7°C° 0 mm 7 mps 759 mmHg 69%
    08:00 -7°C° 0 mm 7 mps 760 mmHg 64%
    09:00 -7°C° 0 mm 7 mps 761 mmHg 59%
    10:00 -7°C° 0 mm 7 mps 762 mmHg 53%
    11:00 -5°C° 0 mm 6 mps 763 mmHg 52%
    12:00 -5°C° 0 mm 6 mps 763 mmHg 50%
    13:00 -5°C° 0 mm 6 mps 764 mmHg 48%
    14:00 -5°C° 0 mm 6 mps 764 mmHg 49%
    15:00 -5°C° 0 mm 5 mps 765 mmHg 49%
    16:00 -5°C° 0 mm 5 mps 765 mmHg 49%
    17:00 -6°C° 0 mm 5 mps 766 mmHg 50%
    18:00 -6°C° 0 mm 5 mps 766 mmHg 50%
    19:00 -7°C° 0 mm 5 mps 767 mmHg 51%
    20:00 -7°C° 0 mm 5 mps 767 mmHg 50%
    21:00 -7°C° 0 mm 5 mps 768 mmHg 48%
    22:00 -7°C° 0 mm 5 mps 768 mmHg 47%
    23:00 -7°C° 0 mm 4 mps 769 mmHg 48%

    23 February, Saturday

    Time Temperature Precipitation Wind Pressure Humidity
    00:00 -7°C° 0 mm 4 mps 769 mmHg 49%
    01:00 -7°C° 0 mm 4 mps 769 mmHg 50%
    02:00 -7°C° 0 mm 3 mps 769 mmHg 51%
    03:00 -7°C° 0 mm 3 mps 769 mmHg 52%
    04:00 -6°C° 0 mm 2 mps 769 mmHg 53%
    05:00 -6°C° 0 mm 2 mps 769 mmHg 54%
    06:00 -6°C° 0 mm 2 mps 770 mmHg 55%
    07:00 -6°C° 0 mm 2 mps 770 mmHg 56%
    08:00 -6°C° 0 mm 2 mps 770 mmHg 50%
    09:00 -5°C° 0 mm 2 mps 770 mmHg 45%
    10:00 -4°C° 0 mm 2 mps 770 mmHg 39%
    11:00 -3°C° 0 mm 2 mps 770 mmHg 35%
    12:00 -3°C° 0 mm 2 mps 770 mmHg 32%
    13:00 -2°C° 0 mm 2 mps 770 mmHg 28%
    14:00 -2°C° 0 mm 2 mps 769 mmHg 28%
    15:00 -2°C° 0 mm 2 mps 769 mmHg 28%
    16:00 -1°C° 0 mm 2 mps 769 mmHg 28%
    17:00 -2°C° 0 mm 2 mps 769 mmHg 31%
    18:00 -2°C° 0 mm 2 mps 769 mmHg 34%
    19:00 0°C° 0 mm 1 mps 768 mmHg 37%
    20:00 0°C° 0 mm 1 mps 768 mmHg 39%
    21:00 0°C° 0 mm 1 mps 768 mmHg 41%
    22:00 -2°C° 0 mm 2 mps 768 mmHg 43%
    23:00 -2°C° 0 mm 2 mps 768 mmHg 45%

    24 February, Sunday

    Time Temperature Precipitation Wind Pressure Humidity
    00:00 -2°C° 0 mm 2 mps 768 mmHg 48%
    01:00 -2°C° 0 mm 2 mps 767 mmHg 50%
    02:00 -2°C° 0 mm 2 mps 767 mmHg 52%
    03:00 -2°C° 0 mm 3 mps 767 mmHg 54%
    04:00 -2°C° 0 mm 3 mps 766 mmHg 56%
    05:00 -2°C° 0 mm 3 mps 766 mmHg 57%
    06:00 -2°C° 0 mm 3 mps 766 mmHg 58%
    07:00 -2°C° 0 mm 3 mps 766 mmHg 59%
    08:00 -1°C° 0 mm 3 mps 766 mmHg 56%
    09:00 0°C° 0 mm 3 mps 766 mmHg 53%
    10:00 +1°C° 0 mm 3 mps 766 mmHg 50%
    11:00 +1°C° 0 mm 3 mps 766 mmHg 51%
    12:00 +2°C° 0 mm 3 mps 765 mmHg 52%
    13:00 +3°C° 0 mm 3 mps 765 mmHg 53%
    14:00 +4°C° 0 mm 2 mps 765 mmHg 58%
    15:00 +3°C° 0 mm 2 mps 765 mmHg 63%
    16:00 +3°C° 0 mm 2 mps 765 mmHg 68%
    17:00 +2°C° 0 mm 2 mps 764 mmHg 72%
    18:00 +1°C° 0 mm 2 mps 764 mmHg 76%
    19:00 -1°C° 0 mm 2 mps 764 mmHg 80%
    20:00 -1°C° 0 mm 2 mps 764 mmHg 81%
    21:00 -1°C° 0 mm 2 mps 764 mmHg 83%
    22:00 -1°C° 0 mm 2 mps 764 mmHg 84%
    23:00 -1°C° 0 mm 2 mps 764 mmHg 85%

    25 February, Monday

    Time Temperature Precipitation Wind Pressure Humidity
    00:00 -1°C° 0 mm 2 mps 763 mmHg 87%
    01:00 0°C° 0 mm 3 mps 763 mmHg 88%
    02:00 -1°C° 0 mm 3 mps 763 mmHg 89%
    03:00 -1°C° 0 mm 3 mps 763 mmHg 91%
    04:00 -1°C° 0 mm 3 mps 762 mmHg 92%
    05:00 -1°C° 0 mm 3 mps 762 mmHg 93%
    06:00 -2°C° 0 mm 4 mps 762 mmHg 93%
    07:00 -1°C° 0 mm 4 mps 762 mmHg 94%
    08:00 0°C° 0 mm 5 mps 763 mmHg 88%
    09:00 +2°C° 0 mm 6 mps 763 mmHg 82%
    10:00 +3°C° 0 mm 7 mps 763 mmHg 77%
    11:00 +3°C° 0 mm 6 mps 764 mmHg 74%
    12:00 +4°C° 0 mm 6 mps 764 mmHg 71%
    13:00 +4°C° 0 mm 6 mps 764 mmHg 68%
    14:00 +5°C° 0 mm 5 mps 764 mmHg 70%
    15:00 +4°C° 0 mm 4 mps 764 mmHg 71%
    16:00 +3°C° 0 mm 4 mps 764 mmHg 73%
    17:00 +1°C° 0 mm 4 mps 764 mmHg 79%
    18:00 +1°C° 0 mm 3 mps 764 mmHg 84%
    19:00 0°C° 0 mm 3 mps 765 mmHg 90%
    20:00 -1°C° 0 mm 3 mps 765 mmHg 90%
    21:00 -1°C° 0 mm 3 mps 765 mmHg 90%
    22:00 -1°C° 0 mm 3 mps 765 mmHg 90%
    23:00 -1°C° 0 mm 3 mps 764 mmHg 91%
    Show more